| time (UTC) | temp F | wind direction | speed knots | gust knots | rain 1hr in | rain 24hr in | rain mn in | humidity % | barometer mb |
| 20260506050533 | 61 | 0 | 0.0 | 0.0 | 0.00 | 0.24 | 0.24 | 81 | 1007.1 |
| 20260506044544 | 60 | 0 | 0.0 | 0.0 | 0.00 | 0.24 | 0.24 | 90 | 1007.0 |
| 20260506043534 | 58 | 0 | 0.0 | 0.0 | 0.00 | 0.24 | 0.24 | 93 | 1006.8 |
| 20260506042534 | 58 | 0 | 0.0 | 0.0 | 0.00 | 0.24 | 0.24 | 97 | 1006.7 |
| 20260506041545 | 57 | 0 | 0.0 | 0.0 | 0.00 | 0.24 | 0.24 | 98 | 1006.8 |
| 20260506040534 | 54 | 0 | 0.0 | 0.0 | 0.00 | 0.24 | 0.24 | 99 | 1006.9 |
| 20260506035534 | 53 | 0 | 0.0 | 0.0 | 0.00 | 0.24 | 0.24 | 99 | 1006.8 |
| 20260506034546 | 53 | 0 | 0.0 | 0.0 | 0.00 | 0.24 | 0.24 | 99 | 1006.5 |
| 20260506033534 | 53 | 0 | 0.0 | 0.0 | 0.00 | 0.24 | 0.24 | 99 | 1006.5 |
| 20260506032534 | 53 | 0 | 0.0 | 0.0 | 0.00 | 0.24 | 0.24 | 99 | 1006.7 |
| 20260506031449 | 53 | 0 | 0.0 | 0.0 | 0.00 | 0.24 | 0.24 | 99 | 1006.6 |
| 20260506030435 | 53 | 0 | 0.0 | 0.0 | 0.00 | 0.24 | 0.24 | 99 | 1006.3 |
| 20260506025435 | 53 | 0 | 0.0 | 0.0 | 0.00 | 0.24 | 0.24 | 99 | 1006.5 |
| 20260506024445 | 54 | 0 | 0.0 | 0.0 | 0.00 | 0.24 | 0.24 | 99 | 1006.6 |
| 20260506023435 | 54 | 0 | 0.0 | 0.0 | 0.00 | 0.24 | 0.24 | 99 | 1006.6 |
| 20260506022435 | 54 | 0 | 0.0 | 0.0 | 0.00 | 0.24 | 0.24 | 99 | 1006.8 |
| 20260506021448 | 54 | 0 | 0.0 | 0.0 | 0.00 | 0.24 | 0.24 | 99 | 1006.8 |
| 20260506020435 | 55 | 0 | 0.0 | 0.0 | 0.00 | 0.24 | 0.24 | 98 | 1006.8 |
| 20260506015435 | 55 | 0 | 0.0 | 0.0 | 0.00 | 0.24 | 0.24 | 98 | 1006.9 |
| 20260506014446 | 55 | 0 | 0.0 | 0.0 | 0.00 | 0.24 | 0.24 | 98 | 1006.5 |
| 20260506013435 | 55 | 0 | 0.0 | 0.0 | 0.00 | 0.24 | 0.24 | 98 | 1006.7 |
| 20260506012435 | 56 | 0 | 0.0 | 0.0 | 0.00 | 0.24 | 0.24 | 98 | 1006.7 |
| 20260506011447 | 56 | 0 | 0.0 | 0.0 | 0.00 | 0.24 | 0.24 | 98 | 1006.4 |
| 20260506010436 | 56 | 0 | 0.0 | 0.0 | 0.00 | 0.24 | 0.24 | 98 | 1006.4 |
| 20260506005435 | 56 | 0 | 0.0 | 0.0 | 0.00 | 0.24 | 0.24 | 97 | 1006.3 |
| 20260506004447 | 56 | 0 | 0.0 | 0.0 | 0.00 | 0.24 | 0.24 | 97 | 1006.2 |
| 20260506003436 | 57 | 0 | 0.0 | 0.0 | 0.00 | 0.24 | 0.24 | 97 | 1006.3 |
| 20260506002435 | 57 | 0 | 0.0 | 0.0 | 0.00 | 0.24 | 0.24 | 97 | 1006.4 |
| 20260506001455 | 57 | 0 | 0.0 | 0.0 | 0.00 | 0.24 | 0.24 | 97 | 1006.4 |
| 20260506000438 | 58 | 0 | 0.0 | 0.0 | 0.00 | 0.24 | 0.24 | 96 | 1006.3 |
| 20260505235436 | 58 | 0 | 0.0 | 0.0 | 0.00 | 0.24 | 0.24 | 96 | 1006.1 |
| 20260505234455 | 58 | 0 | 0.0 | 0.0 | 0.00 | 0.24 | 0.24 | 96 | 1006.2 |
| 20260505233437 | 58 | 0 | 0.0 | 0.0 | 0.00 | 0.24 | 0.24 | 95 | 1006.3 |
| 20260505232437 | 58 | 0 | 0.0 | 0.0 | 0.00 | 0.24 | 0.24 | 95 | 1006.4 |
| 20260505231458 | 58 | 0 | 0.0 | 0.0 | 0.00 | 0.24 | 0.24 | 95 | 1006.6 |
| 20260505230437 | 58 | 0 | 0.0 | 0.0 | 0.01 | 0.24 | 0.24 | 95 | 1006.8 |
| 20260505225437 | 58 | 0 | 0.0 | 0.0 | 0.02 | 0.25 | 0.24 | 95 | 1006.8 |
| 20260505224457 | 58 | 0 | 0.0 | 0.0 | 0.04 | 0.27 | 0.24 | 95 | 1006.9 |
| 20260505223437 | 59 | 0 | 0.0 | 0.0 | 0.05 | 0.28 | 0.24 | 95 | 1006.5 |
| 20260505222437 | 59 | 0 | 0.0 | 0.0 | 0.07 | 0.28 | 0.24 | 95 | 1006.8 |
| 20260505221459 | 59 | 0 | 0.0 | 0.0 | 0.09 | 0.28 | 0.24 | 94 | 1007.0 |
| 20260505220437 | 59 | 45 | 0.0 | 0.9 | 0.12 | 0.27 | 0.22 | 94 | 1006.6 |
| 20260505215438 | 59 | 0 | 0.0 | 0.0 | 0.12 | 0.26 | 0.21 | 94 | 1006.4 |
| 20260505214456 | 59 | 0 | 0.0 | 0.0 | 0.13 | 0.24 | 0.19 | 94 | 1006.5 |
| 20260505213438 | 59 | 0 | 0.0 | 0.0 | 0.18 | 0.24 | 0.19 | 93 | 1006.7 |
| 20260505212438 | 59 | 0 | 0.0 | 0.0 | 0.17 | 0.21 | 0.17 | 92 | 1006.7 |
| 20260505211459 | 59 | 0 | 0.0 | 0.0 | 0.14 | 0.19 | 0.14 | 91 | 1006.8 |
| 20260505210438 | 60 | 0 | 0.0 | 0.0 | 0.11 | 0.15 | 0.11 | 89 | 1006.6 |
| 20260505205438 | 60 | 0 | 0.0 | 0.0 | 0.09 | 0.14 | 0.09 | 87 | 1006.5 |
| 20260505204500 | 61 | 0 | 0.0 | 0.0 | 0.06 | 0.11 | 0.06 | 83 | 1006.0 |
| 20260505203438 | 62 | 1 | 0.0 | 0.9 | 0.01 | 0.06 | 0.01 | 80 | 1005.9 |
| 20260505202438 | 64 | 0 | 0.0 | 0.0 | 0.00 | 0.05 | 0.00 | 69 | 1005.7 |
| 20260505201459 | 65 | 0 | 0.0 | 0.0 | 0.00 | 0.05 | 0.00 | 60 | 1005.2 |
| 20260505200438 | 65 | 0 | 0.0 | 0.0 | 0.00 | 0.05 | 0.00 | 57 | 1004.6 |
| 20260505195438 | 65 | 0 | 0.0 | 0.0 | 0.00 | 0.05 | 0.00 | 58 | 1004.5 |
| 20260505194457 | 65 | 0 | 0.0 | 0.0 | 0.00 | 0.05 | 0.00 | 57 | 1004.4 |
| 20260505193439 | 65 | 0 | 0.0 | 0.0 | 0.00 | 0.05 | 0.00 | 61 | 1004.6 |
| 20260505192438 | 64 | 0 | 0.0 | 0.0 | 0.00 | 0.05 | 0.00 | 61 | 1004.2 |
| 20260505191459 | 64 | 0 | 0.0 | 0.0 | 0.00 | 0.05 | 0.00 | 60 | 1003.8 |
| 20260505190439 | 65 | 0 | 0.0 | 0.0 | 0.00 | 0.05 | 0.00 | 58 | 1003.7 |
| 20260505185439 | 65 | 0 | 0.0 | 0.0 | 0.00 | 0.05 | 0.00 | 57 | 1003.9 |
| 20260505184458 | 66 | 0 | 0.0 | 0.0 | 0.00 | 0.05 | 0.00 | 55 | 1003.7 |
| 20260505183440 | 67 | 0 | 0.0 | 0.0 | 0.00 | 0.05 | 0.00 | 53 | 1004.0 |
| 20260505182439 | 68 | 0 | 0.0 | 0.0 | 0.00 | 0.05 | 0.00 | 52 | 1003.5 |
| 20260505181459 | 69 | 0 | 0.0 | 0.0 | 0.00 | 0.05 | 0.00 | 50 | 1003.6 |
| 20260505180439 | 69 | 0 | 0.0 | 0.0 | 0.00 | 0.05 | 0.00 | 50 | 1003.6 |
| 20260505174458 | 69 | 0 | 0.0 | 0.0 | 0.00 | 0.05 | 0.00 | 50 | 1003.9 |
| 20260505173440 | 70 | 1 | 0.0 | 0.9 | 0.00 | 0.05 | 0.00 | 50 | 1004.1 |
| 20260505172439 | 70 | 0 | 0.0 | 0.0 | 0.00 | 0.05 | 0.00 | 50 | 1004.1 |
| 20260505171501 | 71 | 0 | 0.0 | 0.0 | 0.00 | 0.05 | 0.00 | 49 | 1004.3 |
| 20260505170440 | 71 | 0 | 0.0 | 0.0 | 0.00 | 0.05 | 0.00 | 48 | 1004.3 |
| 20260505165440 | 71 | 0 | 0.0 | 0.0 | 0.00 | 0.05 | 0.00 | 47 | 1004.5 |
| 20260505164458 | 72 | 0 | 0.0 | 0.0 | 0.00 | 0.05 | 0.00 | 46 | 1004.6 |
| 20260505163441 | 72 | 0 | 0.0 | 0.0 | 0.00 | 0.05 | 0.00 | 45 | 1004.7 |
| 20260505162441 | 74 | 181 | 0.0 | 0.9 | 0.00 | 0.05 | 0.00 | 40 | 1004.5 |
| 20260505161501 | 76 | 1 | 0.0 | 0.9 | 0.00 | 0.05 | 0.00 | 36 | 1004.5 |
| 20260505160440 | 77 | 0 | 0.0 | 0.0 | 0.00 | 0.05 | 0.00 | 37 | 1004.1 |
| 20260505152441 | 79 | 0 | 0.0 | 0.0 | 0.00 | 0.05 | 0.00 | 31 | 1004.4 |
| 20260505151455 | 80 | 170 | 0.0 | 1.7 | 0.00 | 0.05 | 0.00 | 31 | 1004.7 |
| 20260505150441 | 78 | 0 | 0.0 | 0.0 | 0.00 | 0.05 | 0.05 | 33 | 1004.8 |
| 20260505140441 | 77 | 0 | 0.0 | 0.0 | 0.00 | 0.05 | 0.05 | 34 | 1005.3 |
| 20260505124458 | 78 | 0 | 0.0 | 0.0 | 0.00 | 0.05 | 0.05 | 33 | 1005.7 |
| 20260505123442 | 78 | 0 | 0.0 | 0.0 | 0.00 | 0.05 | 0.05 | 33 | 1005.8 |
| 20260505122442 | 78 | 0 | 0.0 | 0.0 | 0.00 | 0.05 | 0.05 | 34 | 1005.8 |
| 20260505121504 | 78 | 0 | 0.0 | 0.0 | 0.00 | 0.05 | 0.05 | 35 | 1006.0 |
| 20260505120447 | 78 | 0 | 0.0 | 0.0 | 0.00 | 0.05 | 0.05 | 35 | 1006.2 |
| 20260505115443 | 77 | 0 | 0.0 | 0.0 | 0.00 | 0.05 | 0.05 | 34 | 1006.2 |
| 20260505114501 | 78 | 0 | 0.0 | 0.0 | 0.00 | 0.05 | 0.05 | 35 | 1006.1 |
| 20260505113443 | 79 | 0 | 0.0 | 0.0 | 0.00 | 0.05 | 0.05 | 34 | 1006.4 |
| 20260505112443 | 76 | 0 | 0.0 | 0.0 | 0.00 | 0.05 | 0.05 | 36 | 1006.5 |
| 20260505111504 | 76 | 0 | 0.0 | 0.0 | 0.00 | 0.05 | 0.05 | 38 | 1006.6 |
| 20260505110443 | 77 | 0 | 0.0 | 0.0 | 0.00 | 0.05 | 0.05 | 40 | 1006.6 |
| 20260505101505 | 75 | 46 | 0.0 | 0.9 | 0.00 | 0.05 | 0.05 | 40 | 1007.1 |
| 20260505100444 | 74 | 0 | 0.0 | 0.0 | 0.00 | 0.05 | 0.05 | 41 | 1007.2 |
| 20260505095444 | 75 | 0 | 0.0 | 0.0 | 0.00 | 0.05 | 0.05 | 41 | 1007.2 |
| 20260505094504 | 74 | 0 | 0.0 | 0.0 | 0.00 | 0.05 | 0.05 | 42 | 1007.4 |
| 20260505093444 | 74 | 0 | 0.0 | 0.0 | 0.00 | 0.05 | 0.05 | 44 | 1007.3 |
| 20260505092445 | 74 | 0 | 0.0 | 0.0 | 0.00 | 0.05 | 0.05 | 44 | 1007.5 |
| 20260505091507 | 74 | 0 | 0.0 | 0.0 | 0.00 | 0.05 | 0.05 | 45 | 1007.4 |
| 20260505090444 | 73 | 0 | 0.0 | 0.0 | 0.00 | 0.05 | 0.05 | 44 | 1007.6 |
| 20260505085445 | 74 | 0 | 0.0 | 0.0 | 0.00 | 0.05 | 0.05 | 43 | 1007.8 |
| 20260505084504 | 74 | 0 | 0.0 | 0.0 | 0.00 | 0.05 | 0.05 | 44 | 1007.8 |
| 20260505083445 | 73 | 0 | 0.0 | 0.0 | 0.00 | 0.05 | 0.05 | 45 | 1008.0 |
| 20260505082445 | 74 | 0 | 0.0 | 0.0 | 0.00 | 0.05 | 0.05 | 46 | 1008.0 |
| 20260505081507 | 77 | 0 | 0.0 | 0.0 | 0.00 | 0.05 | 0.05 | 51 | 1007.9 |
| 20260505080445 | 76 | 0 | 0.0 | 0.0 | 0.00 | 0.05 | 0.05 | 53 | 1008.1 |
| 20260505075445 | 75 | 181 | 0.0 | 0.9 | 0.00 | 0.05 | 0.05 | 53 | 1008.0 |
| 20260505074504 | 74 | 55 | 0.0 | 0.9 | 0.00 | 0.05 | 0.05 | 56 | 1008.1 |
| 20260505073445 | 74 | 0 | 0.0 | 0.0 | 0.00 | 0.05 | 0.05 | 55 | 1008.3 |
| 20260505072445 | 74 | 0 | 0.0 | 0.0 | 0.00 | 0.05 | 0.05 | 55 | 1008.4 |
| 20260505071508 | 74 | 0 | 0.0 | 0.0 | 0.00 | 0.05 | 0.05 | 55 | 1008.3 |
| 20260505070446 | 73 | 0 | 0.0 | 0.0 | 0.00 | 0.05 | 0.05 | 56 | 1008.3 |
| 20260505065445 | 72 | 0 | 0.0 | 0.0 | 0.00 | 0.05 | 0.05 | 60 | 1008.4 |
| 20260505064504 | 71 | 0 | 0.0 | 0.0 | 0.00 | 0.05 | 0.05 | 64 | 1008.5 |
| 20260505063446 | 68 | 0 | 0.0 | 0.0 | 0.00 | 0.05 | 0.05 | 63 | 1008.5 |
| 20260505062446 | 68 | 0 | 0.0 | 0.0 | 0.00 | 0.05 | 0.05 | 64 | 1008.8 |
| 20260505061507 | 69 | 0 | 0.0 | 0.0 | 0.00 | 0.05 | 0.05 | 64 | 1008.7 |
| 20260505060447 | 65 | 0 | 0.0 | 0.0 | 0.00 | 0.05 | 0.05 | 72 | 1008.9 |
| 20260505055446 | 64 | 0 | 0.0 | 0.0 | 0.00 | 0.05 | 0.05 | 73 | 1008.9 |